VOZ1536 YSSY-YMHB

Flight info

Callsign VOZ1536
Flight time 1h 28m
Altitude 34000
Route GROOK1/16R WOL H20 MOTRA/N0397F200 W407 TASUM
Aircraft B738/M-SDE2E3FGHIRWXY/LB1

Departure

Time 2026-05-09 10:43
Airport Sydney Kingsford Smith International Airport (YSSY)

Arrival

Time 2026-05-09 12:12
Airport Hobart International Airport (YMHB)
Time Latitude Longitude Altitude Speed Heading
2026-05-09 10:13 -33.93557 151.17996 20 ft 0 kts 280°
2026-05-09 10:30 -33.93557 151.18002 20 ft 2 kts 278°
2026-05-09 10:30 -33.93557 151.18021 21 ft 2 kts 257°
2026-05-09 10:30 -33.93554 151.18033 21 ft 2 kts 247°
2026-05-09 10:31 -33.93543 151.18054 22 ft 2 kts 224°
2026-05-09 10:31 -33.93530 151.18065 22 ft 2 kts 207°
2026-05-09 10:31 -33.93515 151.18071 23 ft 2 kts 189°
2026-05-09 10:31 -33.93502 151.18072 23 ft 0 kts 189°
2026-05-09 10:32 -33.93500 151.18074 23 ft 0 kts 191°
2026-05-09 10:35 -33.93504 151.18072 23 ft 2 kts 190°
2026-05-09 10:36 -33.93543 151.18065 22 ft 9 kts 189°
2026-05-09 10:36 -33.93622 151.18053 20 ft 11 kts 178°
2026-05-09 10:36 -33.93708 151.18063 18 ft 12 kts 165°
2026-05-09 10:36 -33.93772 151.18056 17 ft 9 kts 243°
2026-05-09 10:37 -33.93795 151.17972 14 ft 11 kts 253°
2026-05-09 10:37 -33.93820 151.17864 10 ft 14 kts 254°
2026-05-09 10:37 -33.93850 151.17741 8 ft 14 kts 255°
2026-05-09 10:37 -33.93870 151.17636 8 ft 10 kts 275°
2026-05-09 10:38 -33.93817 151.17590 8 ft 9 kts 348°
2026-05-09 10:38 -33.93746 151.17572 8 ft 12 kts 348°
2026-05-09 10:38 -33.93658 151.17549 8 ft 12 kts 348°
2026-05-09 10:38 -33.93575 151.17526 8 ft 11 kts 348°
2026-05-09 10:39 -33.93495 151.17506 8 ft 12 kts 348°
2026-05-09 10:39 -33.93416 151.17508 11 ft 11 kts
2026-05-09 10:39 -33.93326 151.17490 15 ft 14 kts 348°
2026-05-09 10:39 -33.93235 151.17467 17 ft 11 kts 348°
2026-05-09 10:40 -33.93164 151.17448 19 ft 9 kts 347°
2026-05-09 10:40 -33.93103 151.17433 19 ft 8 kts 348°
2026-05-09 10:40 -33.93052 151.17419 20 ft 8 kts 348°
2026-05-09 10:40 -33.92988 151.17397 21 ft 9 kts 325°
2026-05-09 10:41 -33.92962 151.17326 21 ft 9 kts 279°
2026-05-09 10:41 -33.92955 151.17255 21 ft 9 kts 263°
2026-05-09 10:41 -33.92993 151.17192 24 ft 8 kts 204°
2026-05-09 10:41 -33.93046 151.17189 24 ft 7 kts 172°
2026-05-09 10:42 -33.93074 151.17195 24 ft 0 kts 168°
2026-05-09 10:42 -33.93075 151.17195 24 ft 0 kts 168°
2026-05-09 10:42 -33.93186 151.17224 23 ft 45 kts 168°
2026-05-09 10:43 -33.93715 151.17362 11 ft 106 kts 168°
2026-05-09 10:43 -33.94744 151.17629 23 ft 159 kts 168°
2026-05-09 10:43 -33.95982 151.17953 366 ft 172 kts 167°
2026-05-09 10:43 -33.97239 151.18218 855 ft 181 kts 180°
2026-05-09 10:44 -33.98550 151.18025 1369 ft 188 kts 190°
2026-05-09 10:44 -33.99931 151.17783 1768 ft 200 kts 186°
2026-05-09 10:44 -34.01458 151.17607 2053 ft 218 kts 185°
2026-05-09 10:44 -34.03103 151.17581 2445 ft 232 kts 173°
2026-05-09 10:45 -34.04749 151.18042 2901 ft 243 kts 163°
2026-05-09 10:46 -34.11591 151.17566 5070 ft 269 kts 220°
2026-05-09 10:46 -34.13114 151.16025 5723 ft 272 kts 219°
2026-05-09 10:46 -34.14683 151.14529 6391 ft 274 kts 217°
2026-05-09 10:46 -34.16249 151.13138 7040 ft 277 kts 216°
2026-05-09 10:47 -34.17922 151.11702 7724 ft 280 kts 215°
2026-05-09 10:47 -34.19595 151.10280 8404 ft 282 kts 215°
2026-05-09 10:47 -34.21266 151.08858 9082 ft 285 kts 215°
2026-05-09 10:47 -34.22971 151.07400 9772 ft 288 kts 215°
2026-05-09 10:48 -34.24701 151.05919 10397 ft 294 kts 216°
2026-05-09 10:48 -34.26465 151.04405 10750 ft 310 kts 216°
2026-05-09 10:48 -34.28325 151.02808 11103 ft 325 kts 216°
2026-05-09 10:48 -34.30253 151.01152 11444 ft 340 kts 215°
2026-05-09 10:49 -34.32425 150.99286 11815 ft 356 kts 215°
2026-05-09 10:49 -34.34599 150.97418 12340 ft 365 kts 215°
2026-05-09 10:49 -34.36901 150.95438 13025 ft 371 kts 215°
2026-05-09 10:49 -34.39055 150.93584 13693 ft 375 kts 215°
2026-05-09 10:50 -34.41320 150.91632 14404 ft 380 kts 215°
2026-05-09 10:50 -34.43579 150.89685 15113 ft 384 kts 216°
2026-05-09 10:50 -34.45945 150.87643 15843 ft 388 kts 215°
2026-05-09 10:50 -34.48268 150.85637 16531 ft 392 kts 215°
2026-05-09 10:51 -34.50709 150.83528 17233 ft 396 kts 215°
2026-05-09 10:51 -34.53118 150.81444 17902 ft 400 kts 215°
2026-05-09 10:51 -34.55523 150.79385 18541 ft 403 kts 214°
2026-05-09 10:51 -34.58040 150.77466 19170 ft 407 kts 210°
2026-05-09 10:52 -34.60639 150.75688 19781 ft 411 kts 208°
2026-05-09 10:52 -34.63324 150.73941 20384 ft 415 kts 208°
2026-05-09 10:52 -34.66049 150.72191 20973 ft 418 kts 208°
2026-05-09 10:52 -34.68749 150.70453 21534 ft 422 kts 208°
2026-05-09 10:53 -34.71450 150.68701 22076 ft 425 kts 208°
2026-05-09 10:53 -34.74161 150.66930 22604 ft 428 kts 208°
2026-05-09 10:53 -34.76939 150.65103 23129 ft 432 kts 208°
2026-05-09 10:53 -34.79738 150.63255 23643 ft 435 kts 208°
2026-05-09 10:54 -34.82609 150.61351 24153 ft 439 kts 208°
2026-05-09 10:54 -34.85433 150.59474 24640 ft 442 kts 208°
2026-05-09 10:54 -34.88376 150.57516 25132 ft 445 kts 208°
2026-05-09 10:54 -34.91358 150.55553 25612 ft 448 kts 207°
2026-05-09 10:55 -34.94231 150.53810 26044 ft 451 kts 204°
2026-05-09 10:55 -34.97323 150.52348 26488 ft 454 kts 198°
2026-05-09 10:55 -35.00566 150.51161 26927 ft 457 kts 195°
2026-05-09 10:55 -35.03832 150.50136 27350 ft 460 kts 193°
2026-05-09 10:56 -35.07121 150.49184 27763 ft 463 kts 193°
2026-05-09 10:56 -35.10413 150.48259 28161 ft 466 kts 193°
2026-05-09 10:56 -35.13782 150.47313 28558 ft 469 kts 193°
2026-05-09 10:56 -35.17170 150.46353 29170 ft 466 kts 193°
2026-05-09 10:57 -35.20513 150.45392 29708 ft 464 kts 193°
2026-05-09 10:57 -35.23944 150.44392 30231 ft 463 kts 193°
2026-05-09 10:57 -35.27302 150.43405 30716 ft 462 kts 193°
2026-05-09 10:57 -35.30689 150.42403 31187 ft 461 kts 193°
2026-05-09 10:58 -35.34088 150.41391 31645 ft 460 kts 193°
2026-05-09 10:58 -35.37422 150.40395 32080 ft 459 kts 193°
2026-05-09 10:58 -35.40805 150.39381 32508 ft 458 kts 193°
2026-05-09 10:58 -35.44132 150.38385 32917 ft 457 kts 193°
2026-05-09 10:59 -35.47421 150.37396 33308 ft 457 kts 193°
2026-05-09 10:59 -35.50731 150.36401 33689 ft 456 kts 193°
2026-05-09 10:59 -35.54007 150.35417 33982 ft 456 kts 193°
2026-05-09 11:00 -35.60542 150.33449 33988 ft 455 kts 194°
2026-05-09 11:00 -35.67015 150.31493 33988 ft 455 kts 194°
2026-05-09 11:01 -35.73576 150.29511 33988 ft 455 kts 194°
2026-05-09 11:01 -35.80206 150.27504 33988 ft 455 kts 194°
2026-05-09 11:02 -35.86849 150.25491 33988 ft 455 kts 194°
2026-05-09 11:02 -35.93537 150.23462 33988 ft 455 kts 194°
2026-05-09 11:03 -36.00191 150.21437 33987 ft 455 kts 194°
2026-05-09 11:03 -36.06881 150.19398 33987 ft 455 kts 194°
2026-05-09 11:04 -36.13526 150.17371 33987 ft 455 kts 194°
2026-05-09 11:04 -36.20113 150.15356 33987 ft 455 kts 194°
2026-05-09 11:05 -36.26812 150.13304 33987 ft 455 kts 194°
2026-05-09 11:05 -36.33483 150.11256 33987 ft 455 kts 194°
2026-05-09 11:06 -36.40186 150.09196 33987 ft 455 kts 194°
2026-05-09 11:06 -36.46919 150.07123 33987 ft 455 kts 194°
2026-05-09 11:07 -36.53599 150.05061 33987 ft 455 kts 194°
2026-05-09 11:07 -36.60303 150.02989 33987 ft 455 kts 194°
2026-05-09 11:08 -36.67000 150.00915 33987 ft 455 kts 194°
2026-05-09 11:08 -36.73622 149.98862 33987 ft 455 kts 194°
2026-05-09 11:09 -36.80162 149.96831 33987 ft 455 kts 194°
2026-05-09 11:09 -36.86371 149.94897 33987 ft 455 kts 194°
2026-05-09 11:10 -36.92646 149.92941 33987 ft 455 kts 194°
2026-05-09 11:10 -36.99098 149.90926 33987 ft 455 kts 194°
2026-05-09 11:11 -37.02136 149.89977 33987 ft 455 kts 194°
2026-05-09 11:11 -37.03693 149.89490 33987 ft 455 kts 194°
2026-05-09 11:12 -37.08785 149.87894 33987 ft 455 kts 194°
2026-05-09 11:12 -37.15206 149.85879 33987 ft 455 kts 194°
2026-05-09 11:13 -37.21582 149.83876 33987 ft 455 kts 194°
2026-05-09 11:13 -37.27707 149.81949 33987 ft 455 kts 194°
2026-05-09 11:14 -37.34060 149.79945 33987 ft 455 kts 194°
2026-05-09 11:14 -37.40378 149.77949 33987 ft 455 kts 194°
2026-05-09 11:15 -37.46526 149.76006 33988 ft 455 kts 194°
2026-05-09 11:15 -37.52822 149.74010 33988 ft 455 kts 194°
2026-05-09 11:16 -37.59329 149.71944 33988 ft 455 kts 194°
2026-05-09 11:16 -37.65685 149.69771 33988 ft 455 kts 196°
2026-05-09 11:17 -37.71993 149.67442 33988 ft 455 kts 196°
2026-05-09 11:17 -37.78065 149.65176 33988 ft 455 kts 196°
2026-05-09 11:18 -37.84256 149.62885 33988 ft 455 kts 196°
2026-05-09 11:18 -37.90367 149.60634 33988 ft 455 kts 196°
2026-05-09 11:19 -37.96519 149.58372 33988 ft 455 kts 196°
2026-05-09 11:19 -38.02692 149.56104 33988 ft 455 kts 196°
2026-05-09 11:20 -38.08789 149.53857 33988 ft 454 kts 196°
2026-05-09 11:20 -38.14844 149.51625 33988 ft 455 kts 196°
2026-05-09 11:21 -38.20925 149.49377 33988 ft 455 kts 196°
2026-05-09 11:21 -38.27003 149.47128 33988 ft 455 kts 196°
2026-05-09 11:22 -38.33101 149.44867 33988 ft 455 kts 196°
2026-05-09 11:22 -38.39274 149.42574 33988 ft 455 kts 196°
2026-05-09 11:23 -38.45363 149.40308 33988 ft 455 kts 196°
2026-05-09 11:23 -38.51534 149.38008 33988 ft 455 kts 196°
2026-05-09 11:24 -38.57590 149.35747 33988 ft 455 kts 196°
2026-05-09 11:24 -38.63733 149.33449 33988 ft 455 kts 197°
2026-05-09 11:25 -38.69783 149.31181 33988 ft 455 kts 197°
2026-05-09 11:25 -38.75858 149.28900 33988 ft 455 kts 197°
2026-05-09 11:26 -38.81910 149.26625 33988 ft 455 kts 197°
2026-05-09 11:26 -38.88076 149.24301 33987 ft 455 kts 197°
2026-05-09 11:27 -38.94157 149.22006 33987 ft 455 kts 197°
2026-05-09 11:27 -39.00311 149.19679 33987 ft 455 kts 197°
2026-05-09 11:28 -39.06435 149.17360 33987 ft 455 kts 197°
2026-05-09 11:28 -39.12504 149.15057 33987 ft 455 kts 197°
2026-05-09 11:29 -39.18620 149.12732 33987 ft 455 kts 197°
2026-05-09 11:29 -39.24714 149.10411 33987 ft 455 kts 197°
2026-05-09 11:30 -39.30759 149.08104 33987 ft 455 kts 197°
2026-05-09 11:30 -39.36842 149.05780 33987 ft 455 kts 197°
2026-05-09 11:31 -39.42913 149.03455 33987 ft 455 kts 197°
2026-05-09 11:31 -39.49073 149.01092 33987 ft 455 kts 197°
2026-05-09 11:32 -39.55141 148.98761 33987 ft 455 kts 197°
2026-05-09 11:32 -39.61229 148.96416 33987 ft 455 kts 197°
2026-05-09 11:33 -39.67314 148.94069 33987 ft 455 kts 197°
2026-05-09 11:33 -39.76439 148.90541 33987 ft 455 kts 197°
2026-05-09 11:34 -39.82499 148.88193 33987 ft 455 kts 197°
2026-05-09 11:34 -39.88630 148.85814 33987 ft 455 kts 197°
2026-05-09 11:35 -39.94697 148.83453 33987 ft 455 kts 197°
2026-05-09 11:35 -40.00775 148.81085 33987 ft 455 kts 197°
2026-05-09 11:36 -40.06818 148.78726 33987 ft 455 kts 197°
2026-05-09 11:36 -40.13020 148.76300 33987 ft 455 kts 197°
2026-05-09 11:37 -40.19043 148.73938 33987 ft 455 kts 197°
2026-05-09 11:37 -40.25148 148.71541 33987 ft 455 kts 197°
2026-05-09 11:38 -40.31208 148.69156 33987 ft 455 kts 197°
2026-05-09 11:38 -40.37303 148.66753 33987 ft 455 kts 197°
2026-05-09 11:39 -40.43475 148.64313 33987 ft 455 kts 197°
2026-05-09 11:40 -40.52799 148.60622 33987 ft 455 kts 197°
2026-05-09 11:40 -40.58869 148.58212 33987 ft 455 kts 197°
2026-05-09 11:41 -40.64983 148.55780 33988 ft 455 kts 197°
2026-05-09 11:41 -40.71095 148.53345 33988 ft 455 kts 197°
2026-05-09 11:42 -40.77233 148.50894 33988 ft 455 kts 197°
2026-05-09 11:42 -40.83292 148.48471 33988 ft 455 kts 197°
2026-05-09 11:43 -40.89469 148.45996 33987 ft 455 kts 197°
2026-05-09 11:43 -40.95636 148.43520 33988 ft 455 kts 197°
2026-05-09 11:44 -41.01775 148.41049 33987 ft 455 kts 197°
2026-05-09 11:44 -41.07818 148.38614 33987 ft 455 kts 197°
2026-05-09 11:45 -41.13931 148.36145 33987 ft 455 kts 197°
2026-05-09 11:45 -41.20170 148.33620 33987 ft 455 kts 197°
2026-05-09 11:46 -41.26412 148.31088 33987 ft 455 kts 197°
2026-05-09 11:46 -41.32620 148.28564 33987 ft 455 kts 197°
2026-05-09 11:47 -41.38817 148.25825 33987 ft 455 kts 200°
2026-05-09 11:47 -41.44945 148.22797 33987 ft 455 kts 201°
2026-05-09 11:48 -41.51186 148.19663 33987 ft 455 kts 201°
2026-05-09 11:48 -41.57282 148.16623 33825 ft 451 kts 200°
2026-05-09 11:48 -41.60327 148.15112 33224 ft 450 kts 200°
2026-05-09 11:49 -41.63379 148.13602 32367 ft 454 kts 200°
2026-05-09 11:49 -41.66508 148.12058 31447 ft 458 kts 200°
2026-05-09 11:49 -41.69587 148.10536 30585 ft 461 kts 200°
2026-05-09 11:49 -41.72708 148.08997 29722 ft 463 kts 200°
2026-05-09 11:50 -41.75809 148.07465 29043 ft 459 kts 200°
2026-05-09 11:50 -41.78874 148.05951 28802 ft 446 kts 200°
2026-05-09 11:50 -41.81799 148.04504 28373 ft 430 kts 200°
2026-05-09 11:50 -41.84650 148.03093 27857 ft 417 kts 200°
2026-05-09 11:51 -41.87457 148.01701 27332 ft 404 kts 200°
2026-05-09 11:51 -41.90138 148.00371 26824 ft 393 kts 200°
2026-05-09 11:51 -41.92654 147.99121 26373 ft 382 kts 200°
2026-05-09 11:51 -41.95207 147.97852 25920 ft 370 kts 200°
2026-05-09 11:52 -41.97655 147.96632 25331 ft 364 kts 200°
2026-05-09 11:52 -42.00077 147.95427 24610 ft 361 kts 200°
2026-05-09 11:52 -42.02490 147.94223 23900 ft 358 kts 200°
2026-05-09 11:52 -42.04872 147.93036 23201 ft 354 kts 200°
2026-05-09 11:53 -42.07230 147.91858 22508 ft 350 kts 200°
2026-05-09 11:53 -42.09524 147.90714 21829 ft 347 kts 200°
2026-05-09 11:53 -42.11753 147.89598 21164 ft 343 kts 200°
2026-05-09 11:53 -42.13988 147.88481 20494 ft 340 kts 200°
2026-05-09 11:54 -42.16170 147.87389 19851 ft 336 kts 200°
2026-05-09 11:54 -42.18354 147.86295 19200 ft 332 kts 200°
2026-05-09 11:54 -42.20623 147.85156 18494 ft 329 kts 200°
2026-05-09 11:54 -42.22808 147.84059 17815 ft 326 kts 200°
2026-05-09 11:55 -42.24977 147.82970 17137 ft 322 kts 200°
2026-05-09 11:56 -42.35498 147.77977 14112 ft 308 kts 191°
2026-05-09 11:56 -42.37660 147.77516 13504 ft 305 kts 186°
2026-05-09 11:56 -42.39794 147.77245 13030 ft 298 kts 184°
2026-05-09 11:57 -42.41831 147.77034 12979 ft 282 kts 184°
2026-05-09 11:57 -42.43809 147.76819 12982 ft 268 kts 185°
2026-05-09 11:57 -42.45723 147.76436 12986 ft 276 kts 199°
2026-05-09 11:57 -42.47434 147.75079 12986 ft 280 kts 225°
2026-05-09 11:58 -42.48499 147.72841 12987 ft 279 kts 252°
2026-05-09 11:58 -42.48700 147.70123 12992 ft 279 kts 277°
2026-05-09 11:58 -42.48304 147.67480 12986 ft 279 kts 284°
2026-05-09 11:58 -42.47775 147.64813 12985 ft 279 kts 285°
2026-05-09 11:59 -42.47238 147.62196 12986 ft 279 kts 285°
2026-05-09 11:59 -42.46693 147.59552 12638 ft 285 kts 285°
2026-05-09 11:59 -42.46184 147.56879 12094 ft 289 kts 277°
2026-05-09 11:59 -42.46379 147.54097 11560 ft 291 kts 246°
2026-05-09 12:00 -42.47596 147.51860 11129 ft 289 kts 218°
2026-05-09 12:00 -42.49411 147.50513 10693 ft 288 kts 197°
2026-05-09 12:00 -42.51441 147.50052 10256 ft 288 kts 181°
2026-05-09 12:00 -42.53453 147.50290 9826 ft 287 kts 163°
2026-05-09 12:01 -42.55236 147.51564 9451 ft 284 kts 142°
2026-05-09 12:01 -42.56792 147.53351 9142 ft 279 kts 137°
2026-05-09 12:01 -42.58241 147.55118 8884 ft 274 kts 138°
2026-05-09 12:01 -42.59681 147.56821 8692 ft 266 kts 139°
2026-05-09 12:02 -42.61102 147.58441 8686 ft 252 kts 140°
2026-05-09 12:02 -42.62480 147.59985 8693 ft 250 kts 140°
2026-05-09 12:02 -42.63885 147.61551 8453 ft 254 kts 140°
2026-05-09 12:02 -42.65277 147.63104 8171 ft 251 kts 140°
2026-05-09 12:03 -42.66660 147.64648 7888 ft 248 kts 140°
2026-05-09 12:03 -42.68044 147.66197 7601 ft 246 kts 140°
2026-05-09 12:03 -42.69363 147.67674 7301 ft 251 kts 140°
2026-05-09 12:03 -42.70732 147.69208 6960 ft 256 kts 140°
2026-05-09 12:04 -42.72115 147.70758 6601 ft 256 kts 140°
2026-05-09 12:04 -42.73529 147.72305 6312 ft 253 kts 144°
2026-05-09 12:04 -42.75066 147.73450 6140 ft 252 kts 160°
2026-05-09 12:04 -42.76783 147.74092 5798 ft 251 kts 167°
2026-05-09 12:05 -42.78514 147.74600 5481 ft 244 kts 167°
2026-05-09 12:05 -42.80188 147.75130 5164 ft 237 kts 166°
2026-05-09 12:05 -42.81807 147.75687 4865 ft 231 kts 165°
2026-05-09 12:05 -42.83350 147.76237 4607 ft 226 kts 165°
2026-05-09 12:06 -42.84856 147.76775 4428 ft 217 kts 167°
2026-05-09 12:06 -42.86312 147.77005 4345 ft 205 kts 186°
2026-05-09 12:06 -42.87650 147.76392 4286 ft 203 kts 208°
2026-05-09 12:06 -42.88891 147.75461 4218 ft 204 kts 208°
2026-05-09 12:07 -42.90178 147.74544 4129 ft 203 kts 206°
2026-05-09 12:07 -42.91427 147.73669 4070 ft 202 kts 210°
2026-05-09 12:07 -42.92488 147.72440 4011 ft 197 kts 237°
2026-05-09 12:07 -42.92886 147.70633 3689 ft 199 kts 269°
2026-05-09 12:08 -42.92846 147.68678 3114 ft 212 kts 272°
2026-05-09 12:08 -42.92810 147.66617 2557 ft 220 kts 270°
2026-05-09 12:08 -42.92748 147.64565 2090 ft 208 kts 277°
2026-05-09 12:08 -42.92271 147.62813 1813 ft 189 kts 307°
2026-05-09 12:09 -42.91377 147.61614 1567 ft 174 kts 319°
2026-05-09 12:09 -42.90502 147.60529 1357 ft 162 kts 316°
2026-05-09 12:09 -42.89709 147.59468 1122 ft 154 kts 315°
2026-05-09 12:10 -42.87367 147.56279 500 ft 152 kts 315°
2026-05-09 12:10 -42.86580 147.55214 402 ft 152 kts 314°
2026-05-09 12:10 -42.85797 147.54138 303 ft 153 kts 315°
2026-05-09 12:11 -42.85016 147.53082 176 ft 151 kts 315°
2026-05-09 12:11 -42.84269 147.52069 29 ft 148 kts 315°
2026-05-09 12:11 -42.83692 147.51283 21 ft 92 kts 315°
2026-05-09 12:11 -42.83318 147.50775 19 ft 62 kts 314°
2026-05-09 12:12 -42.83051 147.50413 23 ft 47 kts 314°
2026-05-09 12:12 -42.82896 147.50136 24 ft 21 kts 291°
2026-05-09 12:12 -42.82846 147.50084 24 ft 6 kts 90°
2026-05-09 12:12 -42.82874 147.50165 24 ft 15 kts 126°
2026-05-09 12:13 -42.82975 147.50310 24 ft 21 kts 134°
2026-05-09 12:13 -42.83081 147.50453 22 ft 21 kts 135°
2026-05-09 12:13 -42.83189 147.50601 20 ft 22 kts 134°
2026-05-09 12:13 -42.83263 147.50688 19 ft 9 kts 159°
2026-05-09 12:14 -42.83310 147.50662 21 ft 6 kts 230°
2026-05-09 12:14 -42.83335 147.50621 22 ft 6 kts 226°
2026-05-09 12:14 -42.83385 147.50560 23 ft 10 kts 213°
2026-05-09 12:14 -42.83450 147.50584 23 ft 11 kts 136°
2026-05-09 12:15 -42.83512 147.50671 21 ft 13 kts 135°
2026-05-09 12:15 -42.83569 147.50697 22 ft 8 kts 220°
2026-05-09 12:15 -42.83611 147.50642 24 ft 7 kts 225°
2026-05-09 12:15 -42.83637 147.50607 25 ft 3 kts 224°
2026-05-09 12:16 -42.83648 147.50594 26 ft 1 kts 224°
2026-05-09 12:16 -42.83651 147.50589 26 ft 0 kts 224°